San Jose, Costa Rica

7:40 AM CST on June 23, 2017 (GMT -0600)
Juan Santamaria International

Weather History for MROC - January, 2006

Change the Weather History Date:

Wednesday, January 4, 2006

  Actual Average Record
Temperature  
Mean Temperature 74 °F -  
Max Temperature 83 °F 80 °F 88 °F (2017)
Min Temperature 64 °F 63 °F 62 °F (2006)
Cooling Degree Days 8    
Growing Degree Days 24 (Base 50)    
Moisture  
Dew Point 60 °F    
Average Humidity 67    
Maximum Humidity 88    
Minimum Humidity 35    
Precipitation  
Precipitation 0.00 in 0.01 in - ()
Sea Level Pressure  
Sea Level Pressure 29.97 in    
Wind  
Wind Speed 8 mph ()    
Max Wind Speed 16 mph    
Max Gust Speed -    
Visibility 8.6 miles    
Events      
Averages and records for this station are not official NWS values.
T = Trace of Precipitation, MM = Missing Value Source: Averaged Metar Reports

Daily Weather History Graph

Daily Weather History Graph

Search for Another Location

Airport or City:

Trip Planner

Search our weather history database for the weather conditions in past years. The results will help you decide how hot, cold, wet, or windy it might be!

Date:

Astronomy

Jan. 04, 2006 Rise Set
Actual Time 5:55 AM CST 5:28 PM CST
Civil Twilight 5:32 AM CST 5:51 PM CST
Nautical Twilight 5:06 AM CST 6:17 PM CST
Astronomical Twilight 4:39 AM CST 6:43 PM CST
Moon 9:59 AM CST (1/4) 10:14 PM CST (1/4)
Length of Visible Light 12h 19m
Length of Day
11h 33m
Waxing Crescent, 28% of the Moon is Illuminated
Jan 4
Waxing Crescent
Jan 6
First Quarter
Jan 14
Full
Jan 22
Last Quarter
Jan 29
New

Hourly Weather History & Observations

Time (CST) Temp. Heat Index Dew Point Humidity Pressure Visibility Wind Dir Wind Speed Gust Speed Precip Events Conditions
12:00 AM 65 °F - 61 °F 83% 29.92 in 12 mi Calm Calm - -   Clear
12:00 AM 64.4 °F - 60.8 °F 88% 30.04 in - North 6.9 mph - N/A   Clear
1:00 AM 64.4 °F - 60.8 °F 88% 30.03 in - NNE 5.8 mph - N/A   Clear
2:00 AM 62.6 °F - 57.2 °F 82% 30.00 in - NE 4.6 mph - N/A   Clear
3:00 AM 63 °F - 57 °F 76% 29.89 in 12 mi Calm Calm - -   Clear
3:00 AM 62.6 °F - 57.2 °F 82% 30.00 in - North 4.6 mph - N/A   Clear
5:00 AM 62.6 °F - 55.4 °F 77% 30.00 in - NNE 8.1 mph - N/A   Clear
6:00 AM 64.4 °F - 57.2 °F 77% 30.01 in - NNE 8.1 mph - N/A   Clear
7:00 AM 66.2 °F - 57.2 °F 73% 30.03 in - North 6.9 mph - N/A   Clear
8:00 AM 71.6 °F - 59.0 °F 64% 30.03 in - East 11.5 mph - N/A   Clear
9:00 AM 78 °F - 59 °F 42% 29.91 in 12 mi East 15.0 mph - -   Clear
9:00 AM 77.0 °F - 59.0 °F 54% 30.03 in - East 15.0 mph - N/A   Clear
10:00 AM 78.8 °F - 59.0 °F 51% 30.02 in - East 16.1 mph - N/A   Clear
11:00 AM 80.6 °F 81.1 °F 59.0 °F 48% 30.01 in - East 15.0 mph - N/A   Clear
12:00 PM 82 °F - 59 °F 35% 29.85 in 12 mi ENE 10.4 mph - -   Scattered Clouds
12:00 PM 82.4 °F 82.5 °F 59.0 °F 45% 29.98 in 6.2 mi ENE 10.4 mph - N/A   Partly Cloudy
1:00 PM 82.4 °F 82.9 °F 60.8 °F 48% 29.95 in 6.2 mi ESE 13.8 mph - N/A   Partly Cloudy
2:00 PM 78.8 °F - 59.0 °F 51% 29.94 in 6.2 mi East 10.4 mph - N/A   Scattered Clouds
3:00 PM 81 °F - 60 °F 39% 29.79 in 12 mi East 12.7 mph - -   Partly Cloudy
3:00 PM 80.6 °F 81.5 °F 60.8 °F 51% 29.92 in 6.2 mi East 12.7 mph - N/A   Scattered Clouds
4:00 PM 78.8 °F - 59.0 °F 51% 29.94 in 6.2 mi ESE 8.1 mph - N/A   Scattered Clouds
5:00 PM 77.0 °F - 62.6 °F 61% 29.95 in 6.2 mi Calm Calm - N/A   Scattered Clouds
6:00 PM 70 °F - 67 °F 86% 29.89 in 9 mi SW 9.2 mph - -   Mostly Cloudy
6:00 PM 69.8 °F - 66.2 °F 88% 29.98 in 6.2 mi SW 9.2 mph - N/A   Scattered Clouds
7:00 PM 69.8 °F - 66.2 °F 88% 30.00 in 6.2 mi NNW 5.8 mph - N/A   Scattered Clouds
8:00 PM 68.0 °F - 64.4 °F 88% 30.02 in 6.2 mi ENE 4.6 mph - N/A   Partly Cloudy
9:00 PM - - - % 29.90 in 12 mi ENE 8.1 mph - -  
9:00 PM 68.0 °F - 59.0 °F 73% 30.03 in - ENE 8.1 mph - N/A   Clear
10:00 PM 68.0 °F - 59.0 °F 73% 30.02 in - East 8.1 mph - N/A   Clear
11:00 PM 68.0 °F - 59.0 °F 73% 30.02 in - NE 8.1 mph - N/A   Clear